Location: Artiguedieu
(43.5000°N, 0.5454°E)
Time: 01:18:24
(UTC+00:00)

Transit 2A Rocket - Pass Details

Date: 04 August 2021
Orbit: 586 x 916 km, 66.7° (Epoch: 16 September)

Event Time Altitude Azimuth Distance (km) Brightness Sun altitude
Rises 20:21:09 0° 336° (NNW) 3,240 9.4 -10.9°
Reaches altitude 10° 20:24:02 10° 353° (N) 2,372 8.2 -11.4°
Maximum altitude 20:28:14 22° 42° (NE) 1,763 6.8 -12.0°
Drops below altitude 10° 20:32:39 10° 92° (E) 2,516 7.2 -12.6°
Enters shadow 20:32:39 10° 92° (E) 2,518 7.2 -12.6°
Sets 20:35:48 0° 107° (ESE) 3,492 - -13.0°
